TimeMST,TemperatureF,Dew PointF,Humidity,Sea Level PressureIn,VisibilityMPH,Wind Direction,Wind SpeedMPH,Gust SpeedMPH,PrecipitationIn,Events,Conditions,WindDirDegrees,DateUTC
12:53 AM,10.9,8.1,88,30.11,9.0,Calm,Calm,-,N/A,,Clear,0,2013-02-05 07:53:00
1:53 AM,9.0,6.1,88,30.12,9.0,SSW,4.6,-,N/A,,Clear,200,2013-02-05 08:53:00
2:53 AM,9.0,7.0,92,30.14,7.0,West,8.1,-,N/A,,Clear,260,2013-02-05 09:53:00
3:53 AM,6.1,3.0,87,30.12,7.0,Calm,Calm,-,N/A,,Clear,0,2013-02-05 10:53:00
4:53 AM,1.9,-0.9,88,30.14,10.0,WSW,3.5,-,N/A,,Clear,250,2013-02-05 11:53:00
5:53 AM,7.0,3.9,87,30.15,10.0,SW,3.5,-,N/A,,Clear,230,2013-02-05 12:53:00
6:53 AM,7.0,3.0,84,30.16,10.0,SE,3.5,-,N/A,,Clear,140,2013-02-05 13:53:00
7:53 AM,10.0,7.0,87,30.16,7.0,SSE,5.8,-,N/A,,Mostly Cloudy,150,2013-02-05 14:53:00
8:53 AM,10.0,8.1,92,30.17,9.0,Calm,Calm,-,N/A,,Overcast,0,2013-02-05 15:53:00
9:53 AM,14.0,10.9,88,30.14,8.0,West,3.5,-,N/A,,Mostly Cloudy,260,2013-02-05 16:53:00
10:53 AM,18.0,14.0,84,30.12,10.0,Calm,Calm,-,N/A,,Overcast,0,2013-02-05 17:53:00
11:53 AM,23.0,15.1,72,30.09,10.0,Calm,Calm,-,N/A,,Scattered Clouds,0,2013-02-05 18:53:00
12:53 PM,25.0,17.1,72,30.06,10.0,East,3.5,-,N/A,,Clear,100,2013-02-05 19:53:00
1:53 PM,28.0,19.9,72,30.01,10.0,East,5.8,-,N/A,,Clear,100,2013-02-05 20:53:00
2:53 PM,30.9,21.9,69,29.98,10.0,ESE,5.8,-,N/A,,Clear,110,2013-02-05 21:53:00
3:53 PM,32.0,21.0,64,29.97,10.0,Calm,Calm,-,N/A,,Clear,0,2013-02-05 22:53:00
4:53 PM,27.0,19.9,75,29.99,10.0,Calm,Calm,-,N/A,,Clear,0,2013-02-05 23:53:00
5:53 PM,21.0,16.0,81,29.99,10.0,NW,5.8,-,N/A,,Clear,310,2013-02-06 00:53:00
6:53 PM,19.0,15.1,85,29.99,10.0,NW,3.5,-,N/A,,Clear,310,2013-02-06 01:53:00
7:53 PM,14.0,10.0,84,29.99,10.0,West,3.5,-,N/A,,Clear,280,2013-02-06 02:53:00
8:53 PM,12.0,10.0,92,29.99,10.0,NW,3.5,-,N/A,,Clear,320,2013-02-06 03:53:00
9:53 PM,10.9,9.0,92,29.97,10.0,SSE,3.5,-,N/A,,Clear,160,2013-02-06 04:53:00
10:53 PM,10.0,7.0,87,29.97,10.0,WNW,3.5,-,N/A,,Clear,290,2013-02-06 05:53:00
11:53 PM,9.0,6.1,88,29.96,10.0,West,6.9,-,N/A,,Clear,280,2013-02-06 06:53:00